Temperature
-1 -1 -2 -2 -2 -2 -2 -2 -3 -3 -3 -3 -3 -3 -4 -4 -4 -4 -4 -4 -3 -3 -3 -3 -3 -2 -2 -2 -2 -2 -1 -1 -1 -0 0 1 2 3
-2 -2 -2 -3 -3 -3 -3 -3 -4 -4 -4 -4 -4 -4 -5 -5 -5 -5 -5 -5 -4 -4 -4 -4 -3 -3 -3 -3 -3 -2 -2 -2 -1 -1 -0 0 1 2
-3 -3 -3 -4 -4 -4 -4 -4 -4 -5 -5 -5 -5 -5 -6 -6 -6 -6 -6 -5 -5 -5 -5 -4 -4 -4 -3 -3 -3 -3 -3 -2 -2 -1 -1 -0 1 2
-3 -4 -4 -5 -5 -5 -5 -5 -5 -6 -6 -6 -6 -6 -6 -6 -6 -6 -6 -6 -6 -6 -5 -5 -5 -4 -4 -4 -4 -3 -3 -3 -2 -2 -1 -1 0 1
-5 -5 -6 -6 -6 -6 -6 -6 -6 -6 -7 -7 -7 -7 -7 -7 -7 -7 -6 -6 -6 -6 -6 -6 -6 -5 -5 -5 -4 -4 -4 -3 -3 -2 -2 -1 -1 0
-5 -6 -6 -7 -6 -6 -6 -6 -7 -7 -7 -7 -7 -7 -7 -7 -7 -7 -7 -7 -7 -7 -7 -7 -7 -6 -6 -5 -5 -5 -4 -4 -3 -3 -2 -1 -1 -0
-6 -7 -7 -7 -7 -7 -7 -7 -7 -7 -7 -7 -7 -7 -8 -8 -8 -8 -8 -8 -8 -8 -8 -7 -7 -7 -7 -7 -6 -6 -5 -4 -4 -3 -3 -2 -1 -0
-7 -7 -8 -8 -7 -7 -7 -7 -7 -7 -7 -8 -8 -8 -8 -8 -8 -9 -9 -9 -8 -8 -8 -8 -8 -8 -7 -7 -7 -6 -5 -5 -4 -4 -3 -2 -2 -1
-8 -8 -8 -8 -8 -8 -8 -8 -8 -8 -8 -8 -8 -9 -9 -9 -9 -9 -9 -9 -8 -8 -9 -8 -8 -8 -8 -7 -7 -6 -6 -5 -5 -4 -3 -3 -2 -1
-8 -8 -8 -8 -8 -8 -8 -8 -8 -8 -9 -9 -9 -9 -9 -9 -9 -9 -9 -9 -9 -9 -9 -9 -9 -8 -8 -8 -8 -7 -6 -6 -5 -4 -4 -3 -2 -1
-8 -9 -9 -9 -9 -8 -8 -8 -8 -9 -9 -9 -9 -9 -9 -10 -10 -10 -10 -10 -9 -9 -9 -9 -9 -9 -9 -8 -7 -7 -6 -6 -5 -4 -3 -3 -2 -1
-9 -9 -9 -9 -9 -8 -8 -9 -9 -9 -9 -10 -10 -10 -10 -10 -10 -10 -10 -10 -10 -10 -9 -9 -9 -9 -8 -8 -7 -7 -6 -6 -5 -4 -3 -2 -1 -1
-9 -9 -9 -9 -9 -9 -9 -9 -10 -9 -10 -10 -11 -11 -11 -11 -11 -10 -10 -10 -10 -10 -9 -9 -9 -9 -9 -8 -8 -7 -6 -5 -4 -3 -2 -1 -0 0
-9 -10 -10 -9 -9 -9 -10 -10 -10 -10 -11 -11 -11 -11 -11 -11 -10 -10 -9 -9 -9 -9 -8 -9 -9 -9 -9 -9 -8 -7 -5 -4 -3 -2 -1 0 1 1
-10 -10 -10 -10 -10 -10 -11 -11 -11 -11 -12 -11 -11 -11 -11 -11 -10 -10 -9 -9 -8 -8 -8 -9 -9 -9 -9 -9 -8 -7 -6 -3 -2 -1 0 1 1 2
-10 -10 -10 -10 -11 -11 -11 -12 -12 -12 -12 -12 -12 -12 -11 -11 -10 -10 -10 -9 -9 -8 -8 -8 -8 -8 -8 -8 -8 -7 -5 -4 -1 -0 0 1 2 2
-10 -10 -11 -11 -12 -12 -12 -12 -12 -12 -12 -12 -12 -12 -11 -11 -10 -10 -9 -9 -9 -9 -9 -8 -7 -7 -7 -8 -7 -5 -4 -2 -1 -0 0 1 1 2
-11 -12 -12 -12 -12 -12 -12 -12 -12 -12 -12 -12 -12 -11 -11 -11 -10 -10 -9 -9 -9 -9 -9 -9 -8 -7 -7 -7 -7 -5 -3 -2 -2 -1 -1 -1 -0 0
-12 -12 -12 -13 -13 -13 -13 -13 -12 -12 -12 -12 -11 -11 -11 -10 -10 -10 -9 -9 -9 -9 -8 -8 -8 -8 -8 -8 -6 -5 -4 -3 -2 -2 -2 -1 -1 -1
-13 -13 -13 -13 -13 -13 -13 -13 -12 -12 -12 -11 -11 -10 -10 -10 -10 -9 -9 -9 -9 -8 -8 -8 -7 -8 -8 -8 -7 -6 -4 -3 -3 -3 -2 -2 -2 -2
-13 -13 -13 -13 -13 -13 -13 -12 -12 -12 -11 -11 -10 -10 -10 -10 -9 -9 -8 -8 -8 -8 -8 -8 -7 -7 -7 -7 -7 -6 -5 -4 -4 -3 -3 -3 -3 -3
-13 -13 -13 -13 -12 -12 -12 -12 -12 -11 -10 -10 -10 -10 -9 -9 -8 -8 -8 -8 -8 -8 -8 -8 -7 -7 -6 -6 -7 -6 -6 -5 -4 -4 -4 -4 -4 -4
-13 -13 -13 -12 -12 -12 -12 -11 -11 -10 -10 -9 -9 -9 -8 -8 -8 -7 -7 -7 -7 -7 -8 -8 -7 -7 -6 -6 -6 -6 -6 -5 -5 -5 -5 -5 -4 -5
Wind_Speed
8 9 8 8 8 8 7 8 13 21 21 15 10 9 8 6 18 14 12 28 35 37 37 37 38 38 38 38 38 38 37 37 37 37 36 35 35 34
8 10 10 9 8 7 8 8 8 14 22 19 15 12 13 18 23 15 14 34 35 35 36 37 37 38 38 39 38 38 38 37 37 37 37 36 35 34
10 12 13 12 10 8 8 8 8 9 17 20 18 16 16 17 18 12 13 14 17 31 35 37 38 38 38 38 38 37 37 37 36 36 36 35 35 34
13 14 14 14 13 10 9 9 9 10 14 21 20 18 19 17 18 17 19 19 15 29 34 36 36 37 37 37 37 37 37 37 36 35 35 34 34 33
13 14 15 15 15 11 10 10 10 14 12 17 20 18 17 17 19 20 19 14 18 23 29 32 34 36 37 38 38 37 36 35 35 34 34 33 33 32
12 14 16 15 15 13 13 11 12 14 15 17 18 18 18 16 16 18 19 12 14 18 23 27 31 35 36 37 37 36 36 35 34 33 32 31 30 31
13 15 16 20 24 21 18 14 15 15 16 17 19 19 19 18 18 17 20 19 14 14 16 17 17 17 19 27 31 34 35 34 33 32 31 30 29 29
15 15 16 17 21 28 30 29 26 21 20 19 19 21 22 20 18 19 20 22 22 9 13 18 15 17 16 15 27 33 33 33 33 32 32 31 29 28
13 14 17 18 23 16 24 28 24 29 29 22 22 21 22 22 23 24 22 23 23 17 18 21 14 16 15 19 31 33 34 34 34 33 32 31 30 29
12 14 16 16 19 23 20 20 19 18 22 19 16 19 21 21 22 23 24 23 20 15 15 20 16 16 18 15 28 33 34 34 32 32 30 30 29 28
12 14 18 18 27 32 24 22 22 17 23 28 31 30 34 34 28 20 19 19 20 15 11 16 18 17 16 15 20 28 29 28 30 30 29 29 27 26
12 14 21 25 31 33 24 21 20 18 18 20 21 23 21 23 28 19 17 18 19 18 12 12 16 15 13 9 9 10 15 24 28 28 27 26 25 16
15 15 15 30 34 35 30 17 22 25 17 16 16 16 15 14 15 16 16 16 18 18 15 13 14 13 12 12 9 10 11 12 13 16 20 22 23 18
16 15 18 33 34 32 24 25 31 26 14 15 15 15 15 15 16 17 19 18 17 20 19 17 13 12 12 13 11 8 10 11 11 11 9 12 16 21
16 26 30 32 29 19 24 29 24 15 15 15 16 15 14 15 16 16 16 16 16 15 13 13 12 11 9 10 10 11 11 9 9 6 3 2 3 6
16 21 26 25 21 22 21 18 14 15 16 15 16 15 14 13 14 14 15 14 13 12 10 9 10 10 8 9 10 11 10 7 7 6 3 5 4 4
20 12 10 13 14 14 14 14 14 15 15 15 15 15 16 15 15 13 13 13 12 12 12 9 10 9 8 6 8 10 9 6 5 6 7 11 11 9
20 13 14 14 15 16 16 17 16 16 15 16 15 15 15 16 16 14 12 12 13 12 11 10 10 8 4 2 9 10 8 6 7 9 10 13 14 13
14 13 14 14 15 15 15 16 16 16 15 15 15 15 15 15 14 14 13 12 12 11 10 8 7 7 8 8 10 16 10 7 9 11 12 13 14 13
12 13 14 15 15 15 16 16 16 16 15 15 15 15 14 14 14 13 12 12 12 11 9 7 6 6 5 5 6 9 19 11 9 12 13 14 16 21
13 14 14 15 15 15 15 15 15 15 16 16 15 15 14 13 13 12 12 16 12 8 9 8 8 10 3 3 4 9 13 21 19 11 8 11 14 15
14 14 15 15 15 15 15 15 15 15 16 15 15 14 13 12 12 13 11 11 9 8 7 6 7 7 6 7 9 10 11 13 19 26 24 15 7 8
14 15 15 15 14 14 14 15 16 15 15 15 14 14 14 12 11 10 10 9 8 7 5 5 5 5 6 6 8 10 13 13 12 14 16 24 28 28
Wind_Direction
300 296 294 289 287 287 290 295 301 304 304 303 299 295 293 293 298 301 298 301 300 298 297 296 295 294 293 292 290 289 288 286 285 283 281 278 277 274
303 300 298 297 293 290 287 286 286 294 298 302 304 305 305 304 302 300 298 298 297 296 295 294 293 293 292 291 289 287 286 285 283 281 278 276 274 272
312 310 305 303 300 296 293 290 286 289 296 300 302 303 302 302 300 290 289 287 289 293 294 294 293 291 290 290 289 288 286 284 282 280 277 274 272 271
315 309 307 308 303 300 295 293 295 296 294 297 299 302 300 300 298 295 298 295 292 294 294 294 294 294 293 292 291 289 287 284 282 279 277 274 271 269
309 308 307 304 301 299 297 297 297 297 293 294 296 298 298 299 299 298 294 290 293 295 296 295 294 293 291 290 290 289 288 286 283 278 275 271 269 267
306 304 303 300 299 300 301 293 296 298 297 295 296 298 299 299 299 302 301 294 293 296 292 290 290 291 290 290 290 289 289 287 285 283 278 272 266 263
305 301 300 303 305 306 305 306 306 303 302 301 300 301 302 305 304 304 301 301 292 290 290 288 288 285 286 286 286 285 284 283 282 281 279 276 271 265
306 305 304 303 306 310 310 307 306 306 308 304 303 302 302 302 303 301 301 300 299 286 285 291 289 287 285 282 283 284 285 285 284 282 279 275 270 267
303 307 310 310 313 305 303 306 307 305 304 302 300 300 301 302 302 299 297 295 296 301 299 294 290 287 287 286 289 290 289 287 285 281 276 272 267 263
300 304 305 306 307 307 307 310 306 302 300 301 296 297 299 300 298 299 300 298 294 290 289 292 295 291 290 285 288 286 286 285 283 279 276 270 263 258
304 307 308 306 306 311 314 310 308 306 308 306 305 304 305 305 305 305 303 301 300 298 287 288 293 293 289 284 282 283 285 289 288 283 275 268 260 251
309 308 310 311 311 315 315 313 313 311 311 312 309 306 303 301 304 303 301 299 300 300 293 290 294 298 297 276 268 280 287 288 286 281 273 263 252 243
316 314 312 313 314 316 319 317 313 317 319 314 310 307 306 305 304 302 299 296 296 296 299 298 297 295 289 295 292 282 282 285 286 281 274 260 245 232
315 313 312 315 318 322 324 319 321 324 319 313 310 311 312 311 308 305 301 297 291 290 293 297 297 297 299 300 302 297 295 291 284 276 265 250 237 225
312 312 315 319 323 325 320 322 325 321 315 314 314 313 310 306 306 307 305 302 298 294 293 296 301 302 297 298 299 300 307 304 300 291 282 221 196 194
312 314 320 321 323 322 322 321 319 316 318 315 313 311 310 310 311 312 313 316 316 314 305 295 298 298 293 297 301 307 308 303 315 332 30 66 74 101
324 323 322 323 324 323 321 321 321 321 320 318 316 316 316 315 315 316 315 319 321 323 328 330 326 308 272 286 321 326 327 333 349 6 53 66 60 65
331 326 323 323 322 323 323 322 322 323 322 320 317 316 316 316 317 319 321 324 326 328 331 338 344 344 341 299 347 345 353 11 28 39 60 74 67 62
330 322 321 321 321 321 320 320 320 320 319 318 317 317 316 317 319 322 327 329 330 331 333 339 349 358 7 4 349 1 10 25 53 61 64 72 74 71
324 322 321 320 320 319 319 319 318 319 319 319 317 316 317 319 322 325 328 330 332 333 335 343 351 352 349 331 334 7 26 34 56 72 77 80 82 82
324 322 320 319 318 317 317 317 316 316 316 317 316 317 319 321 323 325 327 331 336 335 344 352 343 350 337 339 31 41 40 44 51 57 64 87 91 89
322 320 318 316 317 316 316 316 316 316 316 316 315 317 318 321 323 323 326 329 332 334 338 346 352 11 30 47 55 52 49 48 50 53 55 58 81 91
320 319 317 316 315 315 315 314 314 313 313 313 314 316 318 321 322 320 321 324 327 333 344 2 11 26 37 43 57 63 61 60 61 66 70 77 85 91
Height
1439 1435 1431 1426 1423 1419 1414 1410 1402 1386 1372 1370 1368 1366 1363 1360 1356 1352 1347 1342 1336 1331 1326 1321 1317 1312 1307 1303 1300 1297 1294 1291 1288 1285 1284 1283 1283 1283
1433 1429 1425 1420 1416 1412 1407 1403 1398 1390 1373 1363 1359 1356 1352 1349 1346 1343 1337 1332 1326 1321 1315 1311 1306 1301 1296 1291 1287 1284 1281 1278 1275 1273 1271 1270 1270 1271
1428 1423 1418 1413 1408 1404 1399 1395 1390 1385 1373 1360 1354 1348 1343 1338 1333 1330 1326 1321 1315 1310 1305 1299 1294 1289 1284 1279 1275 1271 1268 1265 1262 1260 1258 1257 1257 1258
1421 1416 1411 1406 1401 1397 1392 1387 1382 1377 1370 1357 1347 1341 1334 1329 1323 1318 1314 1310 1305 1299 1294 1288 1282 1277 1272 1267 1262 1258 1255 1252 1249 1247 1246 1245 1245 1245
1415 1410 1405 1400 1394 1390 1385 1379 1374 1368 1362 1353 1342 1335 1327 1321 1314 1307 1302 1297 1293 1288 1282 1276 1270 1265 1259 1254 1250 1245 1242 1239 1236 1234 1233 1232 1232 1233
1409 1404 1399 1395 1389 1384 1378 1372 1367 1360 1354 1346 1336 1328 1320 1313 1307 1298 1289 1284 1280 1276 1269 1263 1258 1252 1246 1242 1237 1233 1229 1226 1223 1222 1220 1220 1220 1220
1402 1398 1393 1389 1384 1379 1373 1367 1361 1354 1346 1339 1329 1321 1313 1306 1299 1291 1281 1272 1266 1265 1256 1249 1245 1238 1232 1228 1223 1219 1215 1213 1211 1210 1208 1208 1208 1209
1396 1391 1387 1382 1377 1372 1367 1361 1355 1348 1340 1332 1323 1314 1306 1299 1291 1284 1275 1264 1251 1252 1246 1236 1234 1225 1220 1215 1211 1207 1203 1201 1199 1197 1196 1196 1196 1197
1392 1386 1380 1375 1370 1363 1357 1352 1346 1341 1336 1328 1317 1308 1299 1292 1284 1274 1266 1258 1247 1241 1236 1223 1220 1214 1209 1204 1200 1196 1191 1188 1185 1184 1183 1183 1184 1186
1387 1381 1375 1368 1362 1357 1349 1342 1336 1331 1326 1318 1311 1301 1293 1284 1277 1268 1258 1248 1239 1234 1230 1217 1208 1203 1197 1191 1187 1182 1178 1175 1172 1170 1170 1170 1172 1174
1381 1376 1370 1363 1356 1351 1343 1334 1326 1320 1315 1309 1301 1293 1285 1277 1269 1260 1250 1241 1230 1224 1220 1212 1200 1192 1184 1178 1173 1170 1166 1163 1159 1157 1156 1157 1160 1163
1374 1368 1363 1357 1350 1344 1336 1327 1319 1311 1304 1296 1289 1282 1274 1267 1261 1254 1245 1236 1225 1215 1209 1203 1193 1186 1173 1166 1163 1160 1155 1150 1146 1144 1144 1145 1149 1153
1369 1361 1355 1350 1343 1337 1330 1322 1314 1306 1298 1289 1281 1273 1266 1259 1252 1245 1238 1230 1221 1210 1202 1196 1188 1181 1174 1162 1154 1150 1145 1140 1136 1134 1133 1135 1139 1144
1364 1356 1349 1343 1337 1330 1323 1316 1309 1301 1292 1283 1275 1267 1259 1251 1244 1236 1229 1222 1215 1206 1197 1191 1184 1177 1169 1160 1151 1143 1138 1133 1129 1126 1126 1128 1131 1136
1359 1352 1344 1337 1330 1323 1316 1310 1303 1295 1287 1279 1271 1262 1254 1246 1238 1230 1222 1215 1208 1201 1193 1187 1180 1172 1167 1160 1151 1142 1135 1129 1126 1123 1122 1123 1127 1131
1352 1345 1339 1331 1325 1318 1311 1304 1297 1291 1284 1276 1267 1258 1250 1241 1234 1227 1218 1211 1202 1194 1189 1182 1174 1168 1163 1158 1151 1143 1137 1132 1127 1124 1122 1123 1126 1130
1347 1339 1332 1326 1319 1312 1305 1299 1292 1285 1278 1271 1263 1254 1246 1238 1230 1223 1216 1209 1202 1193 1185 1178 1171 1165 1161 1158 1151 1145 1139 1136 1133 1129 1127 1127 1130 1132
1343 1336 1329 1323 1316 1309 1302 1294 1288 1281 1274 1267 1259 1251 1244 1236 1228 1221 1215 1208 1201 1194 1187 1180 1172 1166 1163 1160 1157 1150 1145 1143 1140 1138 1136 1136 1138 1141
1339 1333 1327 1320 1313 1306 1299 1292 1285 1278 1271 1263 1256 1249 1242 1234 1227 1220 1214 1208 1201 1196 1190 1184 1178 1172 1168 1164 1161 1157 1154 1152 1150 1148 1147 1148 1150 1154
1336 1330 1324 1317 1310 1303 1296 1289 1281 1274 1267 1260 1253 1246 1240 1233 1227 1220 1214 1208 1203 1197 1192 1187 1182 1179 1175 1172 1169 1166 1163 1161 1160 1159 1160 1161 1164 1167
1333 1327 1321 1314 1307 1300 1293 1286 1279 1271 1264 1258 1251 1244 1238 1233 1227 1221 1215 1210 1205 1200 1195 1191 1187 1184 1182 1179 1176 1175 1173 1172 1170 1170 1171 1172 1175 1179
1330 1323 1317 1310 1304 1297 1289 1282 1275 1268 1262 1255 1249 1243 1237 1232 1226 1221 1216 1211 1207 1203 1199 1195 1192 1189 1187 1185 1184 1183 1183 1182 1181 1181 1182 1184 1185 1189
1326 1320 1313 1306 1300 1293 1286 1279 1272 1266 1260 1253 1247 1242 1236 1231 1226 1221 1217 1213 1209 1206 1202 1200 1197 1195 1193 1192 1191 1191 1191 1192 1193 1193 1196 1198 1199 1202